Location: Navajo
(48.7922°N, 105.0603°W)
Time: 06:52:48
(UTC+00:00)

DUCHIFAT 1 - Pass Details

Date: 03 July 2022
Orbit: 580 x 596 km, 98.0° (Epoch: 07 August)

Event Time Altitude Azimuth Distance (km) Brightness Sun altitude
Rises 09:05:47 0° 21° (NNE) 2,845 ? -13.3°
Reaches altitude 10° 09:08:06 10° 30° (NNE) 1,940 ? -13.1°
Maximum altitude 09:12:00 36° 97° (E) 956 ? -12.8°
Drops below altitude 10° 09:15:53 10° 165° (SSE) 1,930 ? -12.5°
Enters shadow 09:16:02 - 166° (SSE) 1,990 ? -12.5°
